41.PKO PÓŁMARATON SZCZECIN "NA RATY" - EDYCJA WIRTUALNA

Organizator:
Stowarzyszenie K2 Partners
Data:
2020-08-01
Miejsce:
Polska
Dystans:
21.1 km
Zgłoszonych:
1163
Wystartowało:
1033
Nie ukończyło:
14
Ukończyło:
1019
Na trasie:
14
Pełne wyniki :
Wyniki uproszczone:
Indywidualnie:
Wyniki nieoficjalne !!!
Klasyfikacje w punktach pomiarowych: Start | Meta
Klasyfikacje wg kategorii: Wszyscy | K-OPEN | M-OPEN | K - wózki aktywne | M - wózki aktywne | K 20 | M 20 | K 30 | M 30 | K 40 | M 40 | K 50 | M 50 | K 60 | M 60 | K 70+ | M 70+

Klasyfikacja wg czasów netto.
MscZawodnikNumerKlubMiejscowośćKrajKategoriaMkatK/MCzas
netto
Czas
brutto
Dyst. kmRóżn.Tempo
min/km
Tempo
km/h
       
1SARBAK Grzegorz 813MUKS JEDYNKA MIĘDZYCHÓDMIĘDZYCHÓDM 201M 101:19:46.00528:18:5021,1+00:00:003:4615,9
2IGLESIAS Javier 447BARAÑAINM 202M 701:32:39.00203:21:4421,1+00:12:534:2313,7
3WOLLNY Kamil 1028EKO- OKNA RUNNERSKORNICEM 203M 901:35:47.00485:41:3421,1+00:16:014:3213,2
4SKWARYŁO Kamil 546STOCZNIOWIEC POZNAŃBODACZÓWM 204M 1201:37:54.00286:59:4221,1+00:18:084:3812,9
5LER Łukasz 357STARGARD SZCZECIŃSKIM 205M 1801:42:37.00576:23:3521,1+00:22:514:5112,3
6MELNYK Sergii 737AMATORWROCŁAWM 206M 2201:43:01.00478:52:2821,1+00:23:154:5212,3
7JARCZYŃSKI Adam 511POZNAŃM 207M 2901:46:18.00094:14:3021,1+00:26:325:0211,9
8KRUPIŃSKI Mikołaj 755SZCZECINM 208M 4101:49:20.00144:27:5721,1+00:29:345:1011,6
9BOROWSKI Rafał 615GORZÓW WIELKOPOLSKIM 209M 4201:49:31.00524:57:0121,1+00:29:455:1111,6
10DAMOISEAUX Philippe 262ENSCHEDEM 2010M 4601:50:16.00337:57:2321,1+00:30:305:1311,5
11GAZDOWICZ Michał 465BRZOZOWSKI KLUB BIEGACZAPRZYSIETNICAM 2011M 5101:50:57.00001:29:0021,1+00:31:115:1511,4
12ZAJĄC Patryk 805WARSZAWAM 2012M 5201:51:02.00049:04:2521,1+00:31:165:1511,4
13ŻYŁOWSKI Filip 1046SZCZECINM 2013M 5301:51:06.00067:44:4221,1+00:31:205:1511,4
14MIKOŁAJCZYK Jakub 110-JABŁOŃ JANKOWCEM 2014M 5401:51:12.00001:51:1221,1+00:31:265:1611,4
15OSTASZEWSKI Paweł 727BIAŁYSTOKM 2015M 7401:54:57.00279:05:5421,1+00:35:115:2611,0
16MIELNIK Michał 382SZCZECINM 2016M 8701:56:21.00001:56:2121,1+00:36:355:3010,9
17PRZYBYSZEWSKI Marcin 18612BZSZCZECINM 2017M 9001:56:38.00079:49:1121,1+00:36:525:3110,9
18REJNOWICZ Dawid 922KIELCEM 2018M 9101:56:44.00001:56:4421,1+00:36:585:3110,8
19SZULŻYCKI Krzysztof 1021LUBAŃM 2019M 9901:57:39.00025:26:3121,1+00:37:535:3410,8
20DERBISZEWSKI Robert 775SZCZECINM 2020M 10101:57:42.00350:31:1821,1+00:37:565:3410,8
21PIERSA Jakub 1099SZCZECINM 2021M 10701:58:20.00127:00:1521,1+00:38:345:3610,7
22MICHOŃ Marcin 753SZCZECINM 2022M 11601:59:23.00385:02:1121,1+00:39:375:3910,6
23PISKORSKI Radosław 779KRAKÓWM 2023M 11801:59:36.00072:44:3021,1+00:39:505:4010,6
24MARZEC Kamil 769PYRZYCEM 2024M 12602:00:53.00216:40:2021,1+00:41:075:4310,5
25MURAWSKI Arkadiusz 683ŚWINOUJŚCIEM 2025M 12902:01:24.00002:01:2421,1+00:41:385:4510,4
26PILAWSKI Piotr 268POLICEM 2026M 13402:01:51.00336:59:1321,1+00:42:055:4610,4
27DATA Krystian 266K.A. TEAM BYSTRABYSTRAM 2027M 13502:01:57.00288:30:0621,1+00:42:115:4610,4
28MISZCZYK Sebastian 47ŁÓDŹM 2028M 14502:03:16.00576:54:5721,1+00:43:305:5010,3
29SOBOL Dominik 292KRAKÓWM 2029M 15102:03:57.00528:42:2221,1+00:44:115:5210,2
30SIERZPUTOWSKI Piotr 1110OŻARÓW MAZOWIECKIM 2030M 15402:04:06.00168:47:3221,1+00:44:205:5210,2
31GOYKE Sebastian 614WŁADYSŁAWOWOM 2031M 15602:04:09.00120:30:1021,1+00:44:235:5310,2
32RYBICKI Kamil 44312 BZSZCZECINM 2032M 16102:04:26.00360:35:0621,1+00:44:405:5310,2
33LOBA Arkadiusz 1243M 2033M 16302:04:28.00594:54:2421,1+00:44:425:5310,2
34ZATOŃSKI Robert 640GDYNIAM 2034M 16802:05:06.00002:05:0621,1+00:45:205:5510,1
35KOLBER Karol 858GNIEZNOM 2035M 17002:05:15.00120:21:1321,1+00:45:295:5610,1
36SURDACKI Jerzy 63DRUŻYNA SZPIKUGRYFINOM 2036M 17102:05:16.00097:55:2621,1+00:45:305:5610,1
37KACIUPA Arkadiusz 495ULIKOWOM 2037M 17302:05:28.00648:32:1421,1+00:45:425:5610,1
38GRZELAK Jakub 812ENEA BIEGAMY ZBIERAMY PAMAGAMYKUTNOM 2038M 17702:05:44.00120:30:1821,1+00:45:585:5710,1
39ZATOŃSKI Michał 799GDYNIAM 2039M 18002:06:00.00360:30:0021,1+00:46:145:5810,0
40WAKUŁA Aleksander 716SZCZECINM 2040M 18202:06:21.00168:42:1121,1+00:46:355:5910,0
41LEWANDOWSKI Maciej 882FCBPOLSKAPOZNAŃM 2041M 18602:06:44.00096:58:4421,1+00:46:586:0010,0
42OSOWSKI Dominik 586STARACHOWICEM 2042M 19102:07:37.00158:09:3121,1+00:47:516:029,9
43WOSZCZYŃSKI Adrian 161WARSZAWAM 2043M 21002:10:13.00467:19:1621,1+00:50:276:109,7
44WOŹNIAK Sebastian 653POZNAŃM 2044M 21102:10:15.00048:59:0121,1+00:50:296:109,7
45KACZMAREK Krystian 489SZCZECINM 2045M 21402:10:31.00002:10:3121,1+00:50:456:119,7
46NIEDŹWIECKI Bastian 123SZCZECINM 2046M 21802:10:56.00502:32:3421,1+00:51:106:129,7
47DOTKA Ryszard 566LUBOŃM 2047M 21902:11:03.00002:11:0321,1+00:51:176:129,7
48ANTOSIK Nataniel 299TANOWOM 2048M 22702:11:25.00002:11:2521,1+00:51:396:139,6
49GARBACKI Igor 797SZCZECINM 2049M 22902:11:39.00504:31:2021,1+00:51:536:149,6
50CHMIELUK Arkadiusz 479JELCZ-LASKOWICEM 2050M 24502:13:30.00002:13:3021,1+00:53:446:209,5
51ŁĘCKI Krzysztof 18K(R)OPKA TEAMGDAŃSKM 2051M 24602:13:52.00476:55:5321,1+00:54:066:209,5
52MARENDZIAK Wiktor 796SZCZECINM 2052M 24802:14:01.00576:31:1621,1+00:54:156:219,4
53SZMYT Tomasz 57SZCZECINM 2053M 25702:14:37.00556:33:3221,1+00:54:516:229,4
54WILCZEK Tomasz 611GLIWICEM 2054M 26202:15:23.00048:36:0521,1+00:55:376:249,4
55KUŚNIERZ Mateusz 593WROCŁAWM 2055M 26902:15:59.00001:17:2821,1+00:56:136:269,3
56SZCZUREK Michał 4WROCŁAWM 2056M 27002:16:06.00241:14:3421,1+00:56:206:279,3
57KALICKI Paweł 544SZCZECINM 2057M 28202:18:11.00290:30:5221,1+00:58:256:339,2
58PYTEL Rafał 23SZCZECINM 2058M 28502:18:46.00147:24:0721,1+00:59:006:349,1
59STACHOWIAK Witold 828GORZKIE POLEM 2059M 29002:19:14.00192:35:1521,1+00:59:286:359,1
60RZESZUT Stanisław 621STARGARDM 2060M 29202:19:24.00120:46:5221,1+00:59:386:369,1
61ILICZ Łukasz 837BIAŁYSTOK BIEGA TEAMDĄBROWA BIAŁOSTOCKAM 2061M 30102:20:36.00505:09:1621,1+01:00:506:399,0
62KOSIŃSKI Mateusz 36CORREADORESSZCZECINM 2062M 31102:21:50.00025:12:3121,1+01:02:046:438,9
63TANONA Paweł 548HOMMELVIKM 2063M 31502:22:10.00624:11:1421,1+01:02:246:448,9
64LUDEW Tomasz 194POLICEM 2064M 31702:22:36.00240:31:2221,1+01:02:506:458,9
65WIŚNIEWSKI Wojciech 907SZCZECINM 2065M 32302:23:12.00474:12:3621,1+01:03:266:478,8
66BUJALSKI Konrad 967FARMACJA TARCHOMINJAKUBIKIM 2066M 33102:23:58.00169:57:5621,1+01:04:126:498,8
67MICHALSKI Piter 3LIDER PITERRACOTM 2067M 34902:26:21.00360:29:4121,1+01:06:356:568,7
68ZWOLIŃSKI Bartłomiej 630LGOTA MUROWANA 61M 2068M 35102:26:35.00265:19:5121,1+01:06:496:568,6
69MAZURKIEWICZ Łukasz 610KRAKÓWM 2069M 35202:26:50.00616:25:5321,1+01:07:046:578,6
70NOWAK Marcin 1105RZGÓWM 2070M 35902:27:48.00072:46:5421,1+01:08:027:008,6
71DZIURLA Bartosz 619GRODZISKI KLUB BIEGACZAGRODZISK WIELKOPOLSKIM 2071M 36802:29:49.00361:16:0521,1+01:10:037:068,5
72SUROWIEC Piotr 936SZCZECINM 2072M 38602:33:27.00192:37:3921,1+01:13:417:168,3
73SOBOLEWSKI Oskar 553WARSZAWAM 2073M 40002:36:43.00430:44:5321,1+01:16:577:258,1
74SAMBORSKI Artur 433RUN FOR FUN TEAMSZCZECINM 2074M 41102:38:37.00216:57:2121,1+01:18:517:318,0
75ZOMERFELD Kacper 143KB KROKUS KWIATKOWICEPROCHOWICEM 2075M 41202:38:39.00504:03:1521,1+01:18:537:318,0
76CHOCHOŁ Daniel 44PRUSZKÓWM 2076M 41302:38:40.00001:20:3121,1+01:18:547:318,0
77ZIELIŃSKI Filip 374SZCZECINM 2077M 41902:40:14.00002:40:1421,1+01:20:287:357,9
78SARNOWSKI Dariusz 231JELENINM 2078M 44502:46:26.00025:50:2821,1+01:26:407:537,6
79HADZIK Tomasz 604DZIKI LIGOTAKOCHANOWICEM 2079M 46402:56:36.00672:54:1421,1+01:36:508:227,2
80SAWICKI Michał 848WARSZAWAM 2080M 47603:03:59.00003:03:5921,1+01:44:138:436,9
81KOWALSKI Bartosz 1131ZIELONKIM 2081M 48303:08:11.00096:39:0121,1+01:48:258:556,7
82TUPAJ Łukasz 372KAMIEŃM 2082M 48703:11:58.00048:47:4021,1+01:52:129:056,6
83PIKULSKI Tomasz 233BOLEWICEM 2083M 48803:16:47.00197:35:2521,1+01:57:019:196,4
84PARUSEL Marcin 1080KOMITET SPORTU I TURYSTYKI KRZYSZTOFA PODGÓRSKIEGOŻYROWAM 2084M 49203:31:15.00161:47:3821,1+02:11:2910:006,0
85PIÓRO Grzegorz 1000GP2ZBYTOMM 2085M 49303:32:45.00049:23:3621,1+02:12:5910:055,9
86BARAN Seweryn 92ŚWIAT PŁYTEK U KRYSPINAGOŁCZEWOM 2086M 49403:33:29.00504:58:4421,1+02:13:4310:075,9
87JEZIERSKI Grzegorz 572WARSZAWAM 2087M 49703:43:27.00430:52:1821,1+02:23:4110:355,7
88BOJARSKI Kamil 1140CHOJNAM 2088M 50003:53:01.00216:48:2821,1+02:33:1511:025,4
89MARCHLIK Krzysztof 261WARSZAWAM 2089M 50504:26:10.00051:20:5721,1+03:06:2412:364,8
Znaleziono 89 wynik(ów)